Regional Weather Roundup
Issued by NWS

Home | Current Version | Previous Version | Text Only | Print | Product List | Glossary On
Versions: 1 2 3 4 5 6 7 8 9 10 11 12 13 14 15 16 17 18 19 20 21 22 23 24 25 26 27 28 29 30 31 32 33 34 35 36 37 38 39 40 41 42 43 44 45 46 47 48 49 50
000
ASUS44 KFWD 211003
RWRTX
NORTH TEXAS HOURLY WEATHER ROUNDUP
NATIONAL WEATHER SERVICE FORT WORTH TX
500 AM CDT SAT APR 21 2018

NOTE: "FAIR" INDICATES FEW OR NO CLOUDS BELOW 12,000 FEET WITH NO
SIGNIFICANT WEATHER AND/OR OBSTRUCTIONS TO VISIBILITY.

TXZ118-119-211100-
DALLAS/FORT WORTH METROPLEX

CITY           SKY/WX    TMP DP  RH WIND       PRES   REMARKS
DFW AIRPORT    MOCLDY    57  47  69 SE14      30.03F
DALLAS LOVE    MOCLDY    58  47  66 SE9       30.06F
FTW MEACHAM    MOCLDY    59  48  67 SE15      30.01F
DAL-EXECUTIVE  CLOUDY    55  47  74 SE8       30.05F
FTW-ALLIANCE   MOCLDY    58  46  64 SE15G24   30.01F
FTW-NAS-JRB    MOCLDY    58  45  62 SE16      30.00F
FTW-SPINKS     MOCLDY    55  47  72 SE7       30.05F
ARLINGTON      MOCLDY    56  47  71 SE12      30.04F
GRAND PRAIRIE  FAIR      56  46  66 SE8       30.07F
ADDISON        CLOUDY    56  46  69 SE8       30.08F
MESQUITE       CLOUDY    53  46  75 SE3       30.08S
LANCASTER      CLOUDY    54  46  73 E3        30.08F
$$

TXZ091>094-102>105-117-120-121-131>134-211100-
NORTH CENTRAL TEXAS

CITY           SKY/WX    TMP DP  RH WIND       PRES   REMARKS
SHRMAN/DENISON MOCLDY    55  45  68 E10       30.07F
GAINESVILLE    MOCLDY    54  46  73 SE12G17   30.04F
BOWIE          CLOUDY    56  45  66 SE12G21   29.99S
BRIDGEPORT     CLOUDY    57  45  64 SE9G16    30.00F
DECATUR        MOCLDY    56  45  64 SE10G22   30.01R
DENTON         FAIR      57  46  66 SE13      30.03F
MCKINNEY       CLOUDY    55  48  77 SE6       30.08S
BONHAM         CLOUDY    53  43  67 SE8       30.09F
ROCKWALL       CLOUDY    53  46  77 MISG      30.09R
TERRELL        MOCLDY    51  46  83 CALM      30.09S
WAXAHACHIE     CLOUDY    54  48  81 CALM      30.08F
CLEBURNE       MOCLDY    55  48  76 SE14      30.04F
GRANBURY       FAIR      58  47  69 SE12      30.00F
$$

TXZ083>090-098>101-113>116-127>130-139>142-154-155-211100-
WESTERN NORTH TEXAS

CITY           SKY/WX    TMP DP  RH WIND       PRES   REMARKS
WICHITA FALLS  LGT RAIN  53  49  86 S8        29.96F
WF-KICKAPOO    RAIN      55  49  82 S12       29.98S
VERNON         CLOUDY    57  48  72 SE7       29.96S
ABILENE        CLOUDY    56  50  80 S15G29    29.91R
ABILENE-DYESS  LGT RAIN  56  49  77 SE18G30   29.90S
GRAHAM           N/A     54  49  82 SE12G22   29.93F
BRECKENRIDGE   CLOUDY    58  47  67 SE16G23   29.94F
CISCO          CLOUDY    55  48  76 SE21G26   29.94F
EASTLAND       CLOUDY    54  48  80 SE13G23   29.95F
RANGER         CLOUDY    53  49  86 SE13      29.97F
MINERAL WELLS  CLOUDY    56  46  69 SE13      29.97F
STEPHENVILLE   CLOUDY    53  50  88 SE9G17    30.00F
COMANCHE       CLOUDY    53  53 100 SE9G16    29.99S
BROWNWOOD      CLOUDY    54  50  87 SE12G18   29.97F
COLEMAN        CLOUDY    56  51  81 SE15      29.96F
BRADY          CLOUDY    54  54 100 SE10      29.97F FOG
$$

TXZ143>147-156>162-174-175-211100-
CENTRAL TEXAS

CITY           SKY/WX    TMP DP  RH WIND       PRES   REMARKS
WACO           CLOUDY    56  48  74 NE6       30.04F
WACO-MCGREGOR  CLOUDY    56  50  80 E5        30.04S
HILLSBORO      CLOUDY    56  50  79 E8        30.04F
CORSICANA      CLOUDY    55  49  80 CALM      30.08R
MEXIA          CLOUDY    53  48  82 W6        30.06R
HEARNE         CLOUDY    57  52  81 E5        30.03R
CAMERON        CLOUDY    57  52  81 E5        30.03R
TEMPLE         CLOUDY    56  51  84 NE5       30.04R
KILLEEN        MOCLDY    55  52  88 NE5       30.02F
KILLEEN-SKYLRK LGT RAIN  56  53  90 NE3       30.03S
FORT HOOD      CLOUDY    55  52  91 NE6       29.99F
GATESVILLE     FAIR      55  52  88 CALM      30.05S
HAMILTON       CLOUDY    54  54 100 SE13G18   30.01F
LAMPASAS       DRIZZLE   54  53  97 E6        30.00F
$$

TXZ095>097-106>112-122>126-135>138-148>153-164>167-211100-
EAST TEXAS

CITY           SKY/WX    TMP DP  RH WIND       PRES   REMARKS
PARIS          FAIR      51  42  71 E8        30.12S
SULPHUR SPRNGS CLOUDY    51  44  78 E5        30.12S
MOUNT PLEASANT FAIR      51  43  75 N3        30.12S
GILMER         FAIR      50  43  76 CALM      30.09F
MINEOLA        CLOUDY    48  46  93 CALM      30.09S
TYLER          FAIR      53  46  77 NE3       30.07S
LONGVIEW       FAIR      52  47  83 E5        30.07F
MARSHALL       FAIR      50  42  73 CALM      30.11F
ATHENS         FAIR      50  46  87 CALM      30.07R
PALESTINE      FAIR      54  47  80 E6        30.06F
JACKSONVILLE   MOCLDY    51  48  89 E3        30.08S
HENDERSON      FAIR      52  46  81 CALM      30.08F
CENTER         FAIR      52  46  80 CALM      30.09F
NACOGDOCHES      N/A     54  46  74 E7        30.07F
LUFKIN         FAIR      53  47  79 SE5       30.06F
$$

SUPPLEMENTAL OBSERVATIONS (NWS FORT WORTH AREA)

CITY           SKY/WX    TMP DP  RH WIND       PRES   REMARKS
$$

SUPPLEMENTAL OBSERVATIONS (NWS NORMAN AREA)

CITY           SKY/WX    TMP DP  RH WIND       PRES   REMARKS
GOODLETT         N/A     58  45  63 E9        29.93S
ODELL            N/A     55  48  78 E6        29.98R
CROWELL          N/A     58  48  68 S16       29.95S
KNOX CITY        N/A     57  48  72 SE8       29.93F
SEYMOUR          N/A     55  48  76 SE9       29.96R
$$

SUPPLEMENTAL OBSERVATIONS (NWS SAN ANGELO AREA)

CITY           SKY/WX    TMP DP  RH WIND       PRES   REMARKS
WEINERT          N/A     56  49  77 SE10      29.93F
HASKELL          N/A     56  51  81 SE9       29.93F
THROCKMORTON     N/A     56  49  76 S10       29.97R
STAMFORD         N/A     58  53  83 SE12      29.94F
CLYDE            N/A     56  50  79 SE22G30   29.92F
$$

SUPPLEMENTAL OBSERVATIONS (NWS SHREVEPORT AREA)

CITY           SKY/WX    TMP DP  RH WIND       PRES   REMARKS
$$

SUPPLEMENTAL OBSERVATIONS ARE A COLLECTION OF AUTOMATED INSTRUMENTS
THAT ARE MAINTAINED BY A VARIETY OF FEDERAL AND STATE AGENCIES.
CERTAIN ELEMENTS...SUCH AS HUMIDITY VALUES AND SUSTAINED WIND
SPEEDS...MAY BE APPROXIMATED.




USA.gov is the U.S. government's official web portal to all federal, state and local government web resources and services.